Flag for U.S.A. Weather past 2 weeks in Temple, Texas, U.S.A.

Now
86 °F

Partly sunny.


Feels Like: 91 °F
Forecast: 76 / 90 °F
Wind: 18 mph from South

Location: Fort Hood AAF Airport

Current Time: Jul 7, 2015 at 12:57:26 PM

Latest Report: Jul 7, 2015 at 11:58 AM


Visibility: 10 mi

Pressure: 29.96 "Hg

Humidity: 60%

Dew point: 71 °F

Location of TempleLocation

Historic Weather in Temple — Graph

°F

Temple temperature yesterday

Maximum temperature yesterday: 91 °F (at 4:58 PM)
Minimum temperature yesterday: 75 °F (at 6:58 AM)
Average temperature yesterday: 83 °F

Past Weeks' High & Low Weather Summary

 TemperatureHumidityPressure
High94 °F (Jun 30, 4:58 PM)100% (Jun 23, 6:03 AM)30.17 "Hg (Jun 23, 6:03 AM)
Low69 °F (Jul 2, 6:58 AM)39% (Jun 30, 4:58 PM)29.85 "Hg (Jul 6, 7:58 PM)
Average81 °F73%29.99 "Hg
* Reported Jun 22 11:58 AM — Jul 7 11:58 AM, Temple, Weather by CustomWeather, © 2015

Note: Actual official high and low records may vary slightly from our data, if they occured in-between our weather recording intervals... More about our weather records

Advertising

Temple weather history for previous 24 hours

 ConditionsComfort  
Time TempWeatherWind HumidityBarometerVisibility
11:58 AM
Tue, Jul 7
86 °FPartly sunny.18 mph60%29.96 "Hg10 mi
10:58 AM83 °FScattered clouds.16 mph67%29.95 "Hg10 mi
9:58 AM82 °FScattered clouds.16 mph73%29.96 "Hg10 mi
8:58 AM79 °FBroken clouds.14 mph79%29.96 "Hg3 mi
8:03 AM77 °FDense fog.15 mph89%29.98 "Hg1 mi
7:58 AM77 °FSunny.14 mph86%29.94 "Hg1 mi
6:58 AM76 °FFog.9 mph88%29.93 "Hg0 mi
6:03 AM77 °FClear.14 mph83%29.97 "Hg1 mi
4:58 AM77 °FPartly cloudy.14 mph89%29.92 "Hg1 mi
3:58 AM77 °FFog.12 mph88%29.96 "Hg1 mi
3:03 AM77 °FFog.12 mph89%29.96 "Hg1 mi
2:58 AM76 °FFog.12 mph89%29.92 "Hg1 mi
2:03 AM77 °FOvercast.12 mph89%29.97 "Hg2 mi
1:58 AM77 °FOvercast.13 mph86%29.93 "Hg2 mi
1:03 AM79 °FPassing clouds.13 mph79%29.99 "Hg2 mi
12:58 AM78 °FPassing clouds.12 mph84%29.95 "Hg3 mi
11:58 PM
Mon, Jul 6
79 °FPassing clouds.12 mph79%29.96 "Hg7 mi
10:58 PM80 °FClear.9 mph73%29.95 "Hg9 mi
9:58 PM81 °FClear.9 mph68%29.91 "Hg10 mi
8:58 PM83 °FSunny.13 mph65%29.90 "Hg10 mi
7:58 PM85 °FPassing clouds.18 mph60%29.85 "Hg10 mi
6:58 PM88 °FScattered clouds.20 mph55%29.87 "Hg10 mi
5:58 PM90 °FScattered clouds.21 mph50%29.89 "Hg10 mi
4:58 PM91 °FScattered clouds.17 mph47%29.91 "Hg10 mi
3:58 PM91 °FSunny.17 mph46%29.92 "Hg10 mi
2:58 PM90 °FScattered clouds.22 mph48%29.96 "Hg10 mi
1:58 PM89 °FScattered clouds.17 mph49%29.97 "Hg10 mi
12:58 PM88 °FPassing clouds.23 mph52%29.99 "Hg10 mi
Weather by CustomWeather, © 2015

See weather overviewHow to use our weather pages